Date String (YYYY-MM-DD hh:mm:ss) UTC,Instrument flags,absolute air pressure of the measurement (hPa),sample flow rate (lpm),inlet stack bypass flow (lpm),air temperature of the measurement (°C),ambient temperature measured by the external sensor (°C),aerosol sample conditioner tube jacket temperature (°C),OPC LED temperature (°C),internal box temperature (°C),relative humidity of the measurement (%),span deviation,mass concentration of particles derived from Lorenz-Mie calculation of OPC scattering (μg/m³),mass concentration of particles derived from Lorenz-Mie calculation of OPC scattering (μg/m³),mass concentration of particles derived from Lorenz-Mie calculation of OPC scattering (μg/m³)
DateTimeUTC,F1_M11,P_M11,Q1_M11,Q2_M11,T1_M11,T2_M11,T3_M11,T4_M11,T5_M11,U1_M11,ZSPAN_M11,X0_M11,X2_M11,X1_M11
2023-12-05 09:00:00,SystemResetWarning,0834.1,5.00,000.00,021.7,020.7,000.0,030.0,022.9,19.2,0000.0,0006.51,0002.15,0001.61
2023-12-05 09:01:00,SystemResetWarning,0834.1,5.00,000.00,021.7,020.7,000.0,030.0,022.9,19.2,0000.0,0005.74,0002.09,0001.60
2023-12-05 09:02:00,SystemResetWarning,0834.1,5.00,000.00,021.7,020.7,000.0,030.0,022.9,19.2,0000.0,0005.74,0002.06,0001.60
2023-12-05 09:03:00,SystemResetWarning,0834.1,5.00,000.00,021.7,020.7,000.0,030.0,022.9,19.2,0000.0,0005.53,0002.05,0001.60
2023-12-05 09:04:00,SystemResetWarning,0834.0,5.00,000.00,021.7,020.7,000.0,030.0,022.9,19.2,0000.0,0006.80,0002.06,0001.62
2023-12-05 09:05:00,SystemResetWarning,0834.0,5.00,000.00,021.7,020.7,000.0,030.0,023.0,19.2,0000.0,0007.29,0002.07,0001.63
2023-12-05 09:06:00,SystemResetWarning,0834.0,4.99,000.00,021.7,020.7,000.0,030.0,022.9,19.2,0000.0,0007.34,0002.05,0001.64
2023-12-05 09:07:00,SystemResetWarning,0834.0,5.00,000.00,021.7,020.7,000.0,030.0,022.9,19.2,0000.0,0007.38,0002.05,0001.64
2023-12-05 09:08:00,SystemResetWarning,0834.0,4.99,000.00,021.7,020.7,000.0,030.0,022.9,19.3,0000.0,0007.00,0002.02,0001.65
2023-12-05 09:09:00,SystemResetWarning,0834.0,5.00,000.00,021.7,020.7,000.0,030.0,022.9,19.3,0000.0,0007.32,0002.07,0001.65
2023-12-05 09:10:00,SystemResetWarning,0834.1,5.00,000.00,021.7,020.7,000.0,030.0,022.9,19.3,0000.0,0006.90,0002.08,0001.65
2023-12-05 09:11:00,SystemResetWarning,0834.1,5.00,000.00,021.7,020.7,000.0,030.0,022.9,19.3,0000.0,0006.58,0002.09,0001.65
2023-12-05 09:12:00,SystemResetWarning,0834.1,5.00,000.00,021.7,020.7,000.0,030.0,023.0,19.3,0000.0,0006.66,0002.13,0001.66
2023-12-05 09:13:00,SystemResetWarning,0834.1,5.00,000.00,021.6,020.6,000.0,030.0,022.9,19.3,0000.0,0006.58,0002.17,0001.67
2023-12-05 09:14:00,SystemResetWarning,0834.1,5.00,000.00,021.6,020.6,000.0,030.0,022.9,19.4,0000.0,0007.61,0002.16,0001.68
2023-12-05 09:15:00,SystemResetWarning,0834.1,5.01,000.00,021.6,020.6,000.0,030.0,022.8,19.4,0000.0,0007.52,0002.15,0001.67
2023-12-05 09:16:00,SystemResetWarning,0834.1,5.00,000.00,021.6,020.6,000.0,029.9,022.8,19.4,0000.0,0007.19,0002.19,0001.67
2023-12-05 09:17:00,SystemResetWarning,0834.0,5.00,000.00,021.6,020.6,000.0,029.9,022.8,19.4,0000.0,0006.98,0002.21,0001.67
2023-12-05 09:18:00,SystemResetWarning,0834.0,5.00,000.00,021.6,020.6,000.0,029.9,022.8,19.4,0000.0,0007.10,0002.24,0001.67
2023-12-05 09:19:00,SystemResetWarning,0834.0,4.99,000.00,021.6,020.6,000.0,029.9,022.8,19.4,0000.0,0007.07,0002.27,0001.68
2023-12-05 09:20:00,SystemResetWarning,0834.1,5.00,000.00,021.6,020.6,000.0,029.9,022.8,19.4,0000.0,0006.51,0002.23,0001.67
2023-12-05 09:21:00,SystemResetWarning,0834.1,5.00,000.00,021.6,020.6,000.0,029.9,022.8,19.4,0000.0,0006.22,0002.27,0001.68
2023-12-05 09:22:00,SystemResetWarning,0834.1,5.01,000.00,021.6,020.6,000.0,029.9,022.8,19.4,0000.0,0006.50,0002.28,0001.69
2023-12-05 09:23:00,SystemResetWarning,0834.1,5.01,000.00,021.6,020.6,000.0,029.9,022.8,19.4,0000.0,0006.58,0002.27,0001.70
2023-12-05 09:24:00,SystemResetWarning,0834.1,5.01,000.00,021.6,020.6,000.0,029.9,022.8,19.4,0000.0,0006.52,0002.26,0001.69
2023-12-05 09:25:00,SystemResetWarning,0834.1,5.00,000.00,021.6,020.6,000.0,029.9,022.8,19.4,0000.0,0005.78,0002.29,0001.71
2023-12-05 09:26:00,SystemResetWarning,0834.1,4.99,000.00,021.6,020.6,000.0,029.9,022.8,19.4,0000.0,0004.52,0002.32,0001.72
2023-12-05 09:27:00,SystemResetWarning,0834.1,4.98,000.00,021.6,020.6,000.0,029.9,022.8,19.4,0000.0,0004.21,0002.30,0001.72
2023-12-05 09:28:00,SystemResetWarning,0834.1,5.00,000.00,021.5,020.6,000.0,029.9,022.8,19.4,0000.0,0004.16,0002.33,0001.73
2023-12-05 09:29:00,SystemResetWarning,0834.1,5.00,000.00,021.5,020.6,000.0,029.9,022.7,19.4,0000.0,0004.07,0002.35,0001.74
2023-12-05 09:30:00,SystemResetWarning,0834.1,5.00,000.00,021.5,020.6,000.0,029.9,022.8,19.5,0000.0,0004.44,0002.34,0001.74
2023-12-05 09:31:00,SystemResetWarning,0834.1,4.99,000.00,021.5,020.6,000.0,029.9,022.8,19.5,0000.0,0004.62,0002.37,0001.74
2023-12-05 09:32:00,SystemResetWarning,0834.1,5.00,000.00,021.5,020.6,000.0,029.9,022.7,19.5,0000.0,0004.58,0002.34,0001.74
2023-12-05 09:33:00,SystemResetWarning,0834.1,4.99,000.00,021.5,020.6,000.0,029.9,022.7,19.5,0000.0,0004.35,0002.32,0001.74
2023-12-05 09:34:00,SystemResetWarning,0834.1,5.00,000.00,021.5,020.6,000.0,029.9,022.7,19.5,0000.0,0004.31,0002.31,0001.73
2023-12-05 09:35:00,SystemResetWarning,0834.2,5.00,000.00,021.5,020.6,000.0,029.9,022.7,19.6,0000.0,0004.42,0002.33,0001.72
2023-12-05 09:36:00,SystemResetWarning,0834.7,5.00,000.00,021.5,020.6,000.0,029.8,022.7,19.6,0000.0,0004.33,0002.30,0001.69
2023-12-05 09:37:00,SystemResetWarning,0834.4,5.01,000.00,021.5,020.6,000.0,029.8,022.7,19.6,0000.0,0004.23,0002.28,0001.68
2023-12-05 09:38:00,SystemResetWarning,0834.2,5.01,000.00,021.5,020.6,000.0,029.8,022.7,19.6,0000.0,0004.08,0002.23,0001.66
2023-12-05 09:39:00,SystemResetWarning,0834.6,5.00,000.00,021.5,020.6,000.0,029.8,022.7,19.6,0000.0,0003.93,0002.19,0001.64
2023-12-05 09:40:00,SystemResetWarning,0834.4,5.00,000.00,021.5,020.6,000.0,029.8,022.8,19.6,0000.0,0003.86,0002.16,0001.63
2023-12-05 09:41:00,SystemResetWarning,0834.3,5.00,000.00,021.5,020.6,000.0,029.8,022.8,19.6,0000.0,0003.41,0002.12,0001.64
2023-12-05 09:42:00,SystemResetWarning,0834.4,4.99,000.00,021.5,020.6,000.0,029.8,022.8,19.6,0000.0,0003.34,0002.12,0001.64
2023-12-05 09:43:00,SystemResetWarning,0834.5,4.99,000.00,021.5,020.5,000.0,029.8,022.7,19.6,0000.0,0004.55,0002.12,0001.62
2023-12-05 09:44:00,SystemResetWarning,0834.8,5.00,000.00,021.5,020.5,000.0,029.8,022.7,19.6,0000.0,0004.75,0002.12,0001.61
2023-12-05 09:45:00,SystemResetWarning,0834.4,5.01,000.00,021.5,020.5,000.0,029.8,022.8,19.6,0000.0,0004.75,0002.10,0001.61
2023-12-05 09:46:00,SystemResetWarning,0834.2,5.00,000.00,021.5,020.5,000.0,029.8,022.8,19.5,0000.0,0004.68,0002.07,0001.63
2023-12-05 09:47:00,SystemResetWarning,0834.2,5.00,000.00,021.5,020.5,000.0,029.8,022.7,19.6,0000.0,0004.58,0002.06,0001.65
2023-12-05 09:48:00,SystemResetWarning,0834.2,5.00,000.00,021.5,020.5,000.0,029.8,022.7,19.6,0000.0,0004.55,0002.04,0001.65
2023-12-05 09:49:00,SystemResetWarning,0834.1,5.00,000.00,021.5,020.5,000.0,029.8,022.7,19.6,0000.0,0004.58,0002.05,0001.65
2023-12-05 09:50:00,SystemResetWarning,0834.1,5.00,000.00,021.5,020.5,000.0,029.8,022.7,19.6,0000.0,0004.58,0002.06,0001.67
2023-12-05 09:51:00,SystemResetWarning,0834.3,5.00,000.00,021.4,020.5,000.0,029.8,022.7,19.6,0000.0,0004.59,0002.07,0001.68
2023-12-05 09:52:00,SystemResetWarning,0834.4,5.00,000.00,021.4,020.5,000.0,029.8,022.6,19.6,0000.0,0004.61,0002.08,0001.67
2023-12-05 09:53:00,SystemResetWarning,0834.2,5.01,000.00,021.4,020.5,000.0,029.8,022.7,19.6,0000.0,0004.63,0002.07,0001.67
2023-12-05 09:54:00,SystemResetWarning,0834.1,5.01,000.00,021.4,020.5,000.0,029.8,022.7,19.5,0000.0,0004.00,0002.07,0001.69
2023-12-05 09:55:00,SystemResetWarning,0834.1,5.00,000.00,021.5,020.5,000.0,029.8,022.7,19.5,0000.0,0003.26,0002.07,0001.70
2023-12-05 09:56:00,SystemResetWarning,0834.2,5.00,000.00,021.4,020.5,000.0,029.8,022.7,19.5,0000.0,0004.84,0002.12,0001.72
2023-12-05 09:57:00,SystemResetWarning,0834.2,5.00,000.00,021.4,020.5,000.0,029.8,022.7,19.5,0000.0,0004.99,0002.21,0001.73
2023-12-05 09:58:00,SystemResetWarning,0834.1,5.00,000.00,021.4,020.5,000.0,029.8,022.6,19.6,0000.0,0005.46,0002.30,0001.74
2023-12-05 09:59:00,SystemResetWarning,0834.0,5.01,000.00,021.4,020.5,000.0,029.8,022.7,19.5,0000.0,0005.82,0002.34,0001.75
